Regional Weather Roundup
Issued by NWS

Home | Current Version | Previous Version | Text Only | Print | Product List | Glossary On
Versions: 1 2 3 4 5 6 7 8 9 10 11 12 13 14 15 16 17 18 19 20 21 22 23 24 25 26 27
000
ASUS45 KSLC 251110
RWRUT

UTAH REGIONAL WEATHER ROUNDUP
NATIONAL WEATHER SERVICE SALT LAKE CITY UT
500 AM MDT SAT MAR 25 2017

UTZ001>011-023>025-251200-

NORTHERN UTAH

CITY           SKY/WX    TMP DP  RH WIND       PRES   REMARKS
BRIGHAM CITY     N/A     49  37  65 NW14      30.02S
HILL AFB       LGT RAIN  48  36  61 NW10      30.00S
LOGAN          LGT RAIN  48  39  71 N7        30.02S
OGDEN          CLOUDY    47  37  68 N8        30.00R
SALT LAKE CITY CLOUDY    49  40  71 W9        29.99S
WENDOVER       LGT RAIN  46  38  73 NW9       30.04R
HEBER CITY     MOCLDY    37  28  70 CALM      30.01S

$$

UTZ011>015-024>027-251200-

CENTRAL/NORTHEAST UTAH

CITY           SKY/WX    TMP DP  RH WIND       PRES   REMARKS
PROVO AIRPORT  CLOUDY    44  34  67 E8        30.01F
MOAB/CANYONLAN CLEAR     37  22  54 CALM      30.04F
DELTA          CLOUDY    46  32  57 S12       30.00F
PRICE          CLOUDY    37  32  82 CALM      30.05F
RICHFIELD      PTCLDY    43  28  56 NE2       30.05F
ROOSEVELT      CLEAR     36  32  87 CALM      30.08S
VERNAL         CLEAR     36  30  79 W3        30.06F

$$

UTZ013>016-019>022-027-251200-

SOUTHERN UTAH

CITY           SKY/WX    TMP DP  RH WIND       PRES   REMARKS
BRYCE CANYON   CLOUDY    29  25  85 CALM      30.12F
CEDAR CITY     MOCLDY    45  26  47 CALM      30.04F
MILFORD        CLOUDY    43  28  55 SW13      30.00F
ST GEORGE      PTSUNNY   51  38  60 CALM      30.01F
HANKSVILLE     MOCLDY    41  30  65 N5        30.05F
KANAB          CLEAR     36  32  87 NE2       30.12F
BLANDING       CLEAR     35  23  60 N9        30.19F WCI  28

$$

REGIONAL REPORTS     COLORADO/ARIZONA

CITY           SKY/WX    TMP DP  RH WIND       PRES   REMARKS
CRAIG, CO      CLOUDY    24  19  81 W3        30.12F
GRAND JUNCTION CLEAR     42  29  59 E15       30.09F
RIFLE, CO      CLOUDY    31  25  78 SW6       30.14F WCI  25
MONTROSE, CO   CLOUDY    35  27  72 SE5       30.15F WCI  31
CORTEZ, CO     CLOUDY    27  25  92 NE7       30.15S WCI  19
COLORADO CITY    N/A     39  36  87 CALM      30.10F
PAGE, AZ       PTCLDY    46  31  55 CALM      30.05F
GRAND CANYON   MOCLDY    29  28  96 CALM      30.15F
KINGMAN, AZ    CLOUDY    49  25  39 SE6       30.05F
FLAGSTAFF, AZ  MOCLDY    30  28  92 CALM      30.16F

$$

REGIONAL REPORTS    NEVADA/IDAHO/WYOMING

CITY           SKY/WX    TMP DP  RH WIND       PRES   REMARKS
LAS VEGAS, NV  CLOUDY    66  33  29 S13G22    29.93F
ELY, NY        RAIN      35  33  92 W9        30.05F WCI  28
ELKO, NV       CLOUDY    40  37  89 SE8       30.06F WCI  34
POCATELLO, ID  CLOUDY    42  39  89 S14       30.05F
BURLEY, ID     CLOUDY    41  37  86 SW9       30.05F
FORT BRIDGER,    N/A     35  29  79 S3        30.06F
EVANSTON, WY   CLOUDY    36  21  54 W9        30.03F WCI  29
ROCK SPRINGS,  CLOUDY    37  29  72 SE3       30.04F
KEMMERER, WY     N/A     30  27  86 NW9       30.03F WCI  22

$$




USA.gov is the U.S. government's official web portal to all federal, state and local government web resources and services.